Tracking 28091 objects as of 30-Sep-2023
HD Live streaming from Space Station
objects crossing your sky now

STARLINK-30258

Track STARLINK-30258 now!
10-day predictions
STARLINK-30258 is classified as:


NORAD ID: 57608
Int'l Code: 2023-119G
Perigee: 559.3 km
Apogee: 561.1 km
Inclination: 43.0 °
Period: 95.7 minutes
Semi major axis: 6931 km
RCS: Unknown
Launch date: August 11, 2023
Source: United States (US)
Launch site: AIR FORCE EASTERN TEST RANGE (AFETR)
Your satellite tracking list
Your tracking list is empty




NASA's NSSDC Master Catalog

Two Line Element Set (TLE):
1 57608U 23119G   23273.15046472  .00008873  00000-0  63696-3 0  9997
2 57608  42.9988 246.1283 0001290 271.8900  88.1795 15.04507375  8972
Source of the keplerian elements: AFSPC